LiveATC.Net - Listen to live air traffic control over the Internet! Contact LiveATC.net for advertising information


ICAO: LGIR  IATA: HER   Airport: Heraklion International Airport
City: Iraklion
Country: Greece   Continent: Europe
LGIR METAR Weather: LGIR 290420Z 19004KT CAVOK 23/14 Q1008 NOSIG
LGIR Flight Activity (FlightAware)
LGIR Radar
Feed Status: DOWN
Last heard on: 2014-07-22 22:10:04 (6 days 6 hours 31 minutes ago)
LGIR Radar Audio Archives
FacilityFrequency
Iraklion Radar123.975


NOTICE

Unauthorized use prohibited. See LiveATC.net Terms of Service


Find LiveATC Audio Streams


Airport/ARTCC Code

Frequency
(e.g., 124.400, 128.75)
Site-wide search

Browse LiveATC Feeds
LiveATC Coverage Map
Top 50 LiveATC Feeds
Bad Weather Areas

LiveATC FAQ
Offer a LiveATC Feed
Contact LiveATC.net
Press Inquiries

LiveATC on iPhone
LiveATC on Android

LiveATC Mobile
(Mobile browser)

ATC Audio Archives
Interesting Recordings

LiveATC Forums


Home Page
About LiveATC.net
Make a Donation
LiveATC Bookstore

Terms of Use
Privacy Policy

ATC/Radar Sites
U.S. ARTCC Freqs
Canadian Air Freqs

AIRMETs/SIGMETs

FAA Airport Status
Nat'l Airspace Status
Arrival Demand Charts


Server Software By:
Icecast.org
Liquidsoap

Please make a donation to help us keep growing!